This demonstration page uses our WeatherBlox Daily Observations layout. Learn more.

38.89511, -77.03637

Hourly Observations for October 24, 2020

Temp ( °F °C ) Dew Point ( °F °C ) Humidity (%) Winds ( mph kmh ) Pressure ( in mb ) Visibility ( mi km ) Precip ( " mm )
12:52 am 00:52 Mostly Clear 63 17.2 61 16.1 93 93 SSW 7 11 30.02 1017 10 16.0934 0 0
1:52 am 01:52 Mostly Clear 63 17.2 60 15.6 90 90 S 8 13 30.01 1016 10 16.0934 0 0
2:52 am 02:52 Mostly Clear 63 17.2 60 15.6 90 90 S 9 15 30 1016 10 16.0934 0 0
3:09 am 03:09 Mostly Clear 63 17.2 60 15.6 90 90 S 8 13 29.99 1016 10 16.0934 0 0
3:31 am 03:31 Mostly Cloudy 62 16.7 60 15.6 93 93 SSW 7 11 29.99 1016 10 16.0934 0 0
3:52 am 03:52 Mostly Cloudy 62 16.7 60 15.6 93 93 S 9 15 29.98 1015 10 16.0934 0 0
4:07 am 04:07 Cloudy 63 17.2 61 16.1 93 93 S 8 13 29.98 1015 10 16.0934 0 0
4:52 am 04:52 Cloudy 63 17.2 61 16.1 93 93 SSW 8 13 29.96 1014 10 16.0934 0 0
5:52 am 05:52 Cloudy 63 17.2 61 16.1 93 93 SSW 8 13 29.96 1015 10 16.0934 0 0
6:52 am 06:52 Cloudy 63 17.2 61 16.1 93 93 SSW 8 13 29.96 1015 10 16.0934 0 0
7:44 am 07:44 Mostly Cloudy 63 17.2 60 15.6 90 90 SW 5 7 29.97 1015 10 16.0934 0 0
7:52 am 07:52 Mostly Cloudy 62 16.7 60 15.6 93 93 SW 5 7 29.97 1015 10 16.0934 0 0
7:54 am 07:54 Mostly Cloudy 62 16.7 60 15.6 93 93 SSW 3 6 29.97 1015 10 16.0934 0 0
8:52 am 08:52 Mostly Cloudy 64 17.8 61 16.1 90 90 SSW 7 11 29.98 1015 10 16.0934 0 0
9:52 am 09:52 Mostly Cloudy 66 18.9 62 16.7 87 87 SE 5 7 29.98 1015 10 16.0934 0 0
10:52 am 10:52 Mostly Cloudy 68 20 61 16.1 78 78 Calm 29.97 1015 10 16.0934 0 0
11:52 am 11:52 Mostly Cloudy 71 21.7 62 16.7 73 73 Calm 29.96 1015 10 16.0934 0 0
12:52 pm 12:52 Mostly Cloudy 74 23.3 62 16.7 67 67 NE 3 6 29.95 1014 10 16.0934 0 0
1:52 pm 13:52 Mostly Cloudy 77 25 62 16.7 60 60 NNW 14 22 29.93 1014 10 16.0934 0 0
2:52 pm 14:52 Mostly Cloudy 76 24.4 61 16.1 60 60 NNW 10 17 29.93 1013 10 16.0934 0 0
3:52 pm 15:52 Mostly Cloudy 73 22.8 61 16.1 66 66 NNW 15 24 29.94 1014 10 16.0934 0 0
4:52 pm 16:52 Cloudy 71 21.7 57 13.9 61 61 NNW 16 26 29.96 1015 10 16.0934 0 0
5:52 pm 17:52 Cloudy 69 20.6 55 12.8 61 61 NNW 12 19 29.98 1015 10 16.0934 0 0
6:52 pm 18:52 Cloudy 68 20 53 11.7 59 59 N 12 19 30 1016 10 16.0934 0 0
7:52 pm 19:52 Cloudy 67 19.4 51 10.6 57 57 NNW 14 22 30.02 1017 10 16.0934 0 0
8:52 pm 20:52 Cloudy 65 18.3 50 10 59 59 N 15 24 30.04 1017 10 16.0934 0 0
9:52 pm 21:52 Cloudy 63 17.2 48 8.9 58 58 NNW 15 24 30.06 1018 10 16.0934 0.001 0.001
10:52 pm 22:52 Cloudy with Light Rain 61 16.1 46 7.8 58 58 NNW 16 26 30.09 1019 10 16.0934 0.001 0.001
11:52 pm 23:52 Cloudy with Light Rain 58 14.4 50 10 75 75 N 8 13 30.1 1019 10 16.0934 0.001 0.001

Powered by AerisWeather